Sable: Past 24 Hour Conditions

 

Bonavista

08:30 AM NST 23 November 2014
This table is a summary of hourly weather conditions for the past 24 hours.
Date / Time
(NST)
Wind(knots) Conditions Visibility(km) Pressure(kPa) Air tempC) Relative humidity(%) Dew pointC) Wind Chill
23 November 2014
8:30 WSW 23 gust 31 N/A N/A 100.5 1 76 -3 *
7:30 WSW 23 gust 29 N/A N/A 100.4 1 77 -3 *
6:30 SW 28 gust 33 N/A N/A 100.4 0 76 -4 *
5:30 WSW 27 gust 32 N/A N/A 100.4 -1 77 -4 -9
4:30 WSW 27 gust 33 N/A N/A 100.4 -1 77 -4 -9
3:30 WSW 26 gust 32 N/A N/A 100.4 -1 71 -6 -10
2:30 WSW 24 gust 32 N/A N/A 100.5 -1 66 -7 -9
1:30 WSW 30 gust 37 N/A N/A 100.5 -1 66 -7 -10
0:30 WSW 28 gust 33 N/A N/A 100.5 -2 72 -6 -11
22 November 2014
23:30 WSW 27 gust 34 N/A N/A 100.5 -2 70 -7 -11
22:30 WSW 27 gust 33 N/A N/A 100.6 -2 72 -7 -11
21:30 WSW 32 gust 44 N/A N/A 100.6 -2 68 -7 -12
20:30 W 38 N/A N/A 100.6 -2 59 -9 -12
19:30 W 36 gust 42 N/A N/A 100.5 -2 63 -8 -12
18:30 W 35 gust 43 N/A N/A 100.5 -3 63 -9 -13
17:30 W 35 gust 45 N/A N/A 100.5 -3 60 -9 -13
16:30 W 37 gust 43 N/A N/A 100.4 -2 61 -9 -12
15:30 W 35 gust 44 N/A N/A 100.3 -2 55 -10 -12
14:30 W 34 gust 40 N/A N/A 100.3 -1 57 -9 -11
13:30 W 33 gust 38 N/A N/A 100.2 -2 55 -9 -11
12:30 W 34 gust 40 N/A N/A 100.1 -2 58 -9 -12
11:30 WNW 37 gust 47 N/A N/A 100.1 -2 58 -10 -13
10:30 W 36 N/A N/A 100.2 -3 65 -9 -14
9:30 W 35 gust 44 N/A N/A 100.1 -4 69 -9 -14
8:30 W 37 gust 42 N/A N/A 100.1 -4 66 -10 -15
 
Map of Atlantic - Newfoundland marine weather areas Southwestern Grand Banks - 44138 Banquereau - 44139 Tail of the Bank - 44140 Nickerson Bank - 44251 Northeast Burgeo Bank - 44255 Blanc-Sablon Airport Cap Whittle Chevery Natashquan Airport Heath Point Miscou Island Grand Étang Ingonish Beach North Mountain St.Paul Island J.A. Douglas McCurdy Sydney Airport Charlottetown Airport East Point North Cape Argentia Bonavista Burgeo Cape Race Corner Brook Daniel's Harbour Englee Ferolle Point La Scie Port aux Basques Rocky Harbour Sagona Island St. Anthony Airport St. John's Int'l Airport St. Lawrence Stephenville Airport Twillingate Winterland Wreckhouse Cartwright Airport Mary's Harbour Grates Cove Pool's Island Marticot Island Long Pond Îles de la Madeleine Airport
Legend: buoyBuoy land stationLand Station